#timestamp,LO_Frequency,Hit,StdDev 
1583391615.0,286047002.9,N
1583391615.9,286047002.9,N
1583391635.8,286047003.5,N
1583391655.6,286047004.4,N
1583391675.5,286047001.5,N
1583391695.3,286047001.6,N
1583391715.1,286047001.9,N
1583391735.9,286047001.7,N
1583391755.7,286047001.5,N
1583391775.6,286047003.6,N
1583391795.4,286047002.5,N
1583391815.2,286047002.1,N
1583391835.1,286047001.3,N
1583391836.0,286047001.3,N
1583391855.8,286047001.5,N
1583391875.6,286047001.5,N
1583391895.5,286047005.7,Y
1583391915.3,286047001.7,P
1583391935.2,286047004.4,P
1583391955.9,286047001.5,N
1583391975.7,286047000.6,N
1583391995.6,286046998.4,N
1583392015.4,286046998.1,N
1583392035.2,286046998.9,N
1583392055.1,286046997.2,N
1583392056.0,286046997.2,N
1583392075.8,286046999.3,N
1583392095.7,286046999.0,N
1583392115.5,286046995.9,N
1583392135.3,286046994.0,N
1583392155.2,286046992.9,N
1583392175.0,286046993.2,N
1583392175.9,286046993.2,N
1583392195.8,286046992.2,N
1583392215.6,286046995.2,N
1583392235.4,286046995.5,N
1583392255.3,286046999.2,N
1583392275.1,286046997.7,N
1583392295.8,286046997.1,N
1583392315.7,286046999.5,N
1583392335.5,286046997.5,N
1583392355.4,286046996.0,N
1583392375.2,286046995.1,N
1583392395.0,286046995.4,N
1583392395.9,286046995.4,N
1583392415.8,286046995.8,N
1583392435.6,286046995.9,N
1583392455.5,286046995.4,N
1583392475.3,286046993.7,N
1583392495.1,286046997.4,N
1583392515.9,286047001.0,N
1583392535.7,286047000.3,N
1583392555.6,286046999.9,N
1583392575.4,286047000.6,N
1583392595.2,286047000.7,N
1583392615.1,286046999.1,N
1583392616.0,286046999.1,N
1583392635.8,286046996.6,N
1583392655.6,286046999.4,N
1583392675.5,286046996.6,N
1583392695.3,286046995.3,N
1583392715.2,286046995.9,N
1583392735.9,286046994.4,N
1583392755.7,286046992.0,Y
1583392775.6,286046996.4,P
1583392795.4,286046994.9,P
1583392815.3,286046999.2,N
1583392835.1,286046998.3,N
1583392836.0,286046998.3,N
1583392855.8,286046998.9,N
1583392875.7,286046998.9,N
1583392895.5,286046999.0,N
1583392915.3,286046998.8,N
1583392935.2,286047000.8,N
1583392955.0,286047000.5,N
1583392955.9,286047000.5,N
1583392975.8,286046999.4,N
1583392995.6,286046999.2,N
1583393015.4,286046995.4,Y
1583393035.3,286046999.3,P
1583393055.1,286046999.3,N
1583393075.9,286046997.2,P
1583393095.7,286046997.0,Y
1583393115.5,286047000.9,P
1583393135.4,286046999.8,N
1583393155.2,286046998.4,N
1583393175.0,286046997.7,N
1583393175.9,286046997.7,N
1583393195.8,286046997.6,N
1583393215.6,286046995.0,Y
1583393235.5,286046996.7,P
1583393255.3,286046996.6,P
1583393275.1,286046999.4,N
1583393295.9,286047001.2,N
1583393315.7,286047000.4,N
1583393335.6,286047000.9,N
1583393355.4,286047000.7,N
1583393375.2,286046998.1,N
1583393395.1,286046998.1,N
1583393396.0,286046998.1,N
1583393415.8,286047003.4,N
1583393435.6,286047005.9,Y
1583393455.5,286047005.2,P
1583393475.3,286047007.1,N
1583393495.2,286047006.4,N
1583393515.9,286047004.5,N
1583393535.7,286047003.0,N
1583393555.6,286047003.2,N
1583393575.4,286047003.0,N
1583393625.3,286047005.7,E
1583393635.2,286047001.8,N
1583393655.0,286046998.7,P
1583393655.9,286046998.7,N
1583393675.8,286047002.7,N
1583393695.6,286047001.0,N
1583393715.5,286047002.1,N
1583393735.3,286047005.3,Y
1583393755.1,286047004.8,P
1583393775.9,286047004.1,N
1583393795.7,286047003.8,N
1583393815.5,286047002.4,N
1583393835.4,286047000.9,N
1583393855.2,286047000.0,N
1583393875.1,286047002.7,N
1583393876.0,286047002.7,N
1583393895.8,286046999.8,N
1583393915.6,286046998.1,N
1583393935.5,286046998.1,N
1583393955.3,286046998.3,N
1583393975.1,286046996.5,N
1583393995.9,286046996.8,N
1583394015.7,286046996.7,N
1583394035.6,286046996.8,N
1583394055.4,286047000.3,N
1583394075.2,286047000.8,N
1583394095.1,286047002.3,N
1583394096.0,286047002.3,N
1583394115.8,286047000.2,N
1583394135.7,286047000.2,N
1583394155.5,286047000.4,N
1583394175.3,286047002.4,N
1583394195.2,286046999.9,N
1583394215.0,286047002.8,N
1583394215.9,286047002.8,N
1583394235.7,286047000.2,N
1583394255.6,286047002.5,N
1583394275.4,286047002.3,N
1583394295.3,286046999.7,N
1583394315.1,286047000.2,N
1583394316.0,286047000.2,N
1583394335.8,286047001.3,N
1583394355.7,286047005.4,N
1583394375.5,286047006.9,Y
1583394395.4,286047006.1,P
1583394415.2,286047007.0,N
1583394435.0,286047007.0,N
1583394435.9,286047007.0,N
1583394455.8,286047006.9,N
1583394475.6,286047007.2,N
1583394495.4,286047003.2,N
1583394515.3,286047003.5,N
1583394535.1,286047004.4,N
1583394555.9,286047003.6,N
1583394575.7,286047005.9,N
1583394595.5,286047001.9,N
1583394615.4,286047000.2,N
1583394635.2,286047001.1,N
1583394655.0,286047000.0,N
1583394655.9,286047000.0,N
1583394675.8,286047002.2,N
1583394695.6,286047004.4,N
1583394715.5,286047003.2,N
1583394735.3,286047002.3,N
1583394755.1,286047003.9,N
1583394775.9,286047001.7,N
1583394795.7,286046999.8,N
1583394815.6,286047002.7,N
1583394835.4,286047001.0,N
1583394855.2,286047000.4,N
1583394875.1,286047002.8,N
1583394876.0,286047002.8,N
1583394895.8,286047001.0,N
1583394915.6,286047000.3,N
1583394935.5,286047000.1,N
1583394955.3,286047002.2,N
1583394975.2,286047002.7,N
1583394995.9,286046999.7,N
1583395015.7,286047000.2,N
1583395035.6,286046999.9,N
1583395055.4,286047000.5,N
1583395075.3,286047000.3,N
1583395095.1,286047000.5,N
1583395096.0,286047000.5,N
1583395115.8,286047001.2,N
1583395135.7,286046997.4,N
1583395155.5,286046995.1,Y
1583395175.3,286046995.8,P
1583395195.2,286046995.6,N
